ECMPF LSGS-LIML

Flight info

Callsign ECMPF
Flight time N/A
Altitude 12000
Route VFR
Aircraft B55/L-SDE2E3FGHIRWXY/C

Departure

Time 2026-04-18 17:30
Airport Sion Airport (LSGS)

Arrival

Time N/A
Airport Milano Linate Airport (LIML)
Time Latitude Longitude Altitude Speed Heading
2026-04-18 17:28 46.21753 7.32109 1576 ft 0 kts 341°
2026-04-18 17:29 46.21778 7.32097 1576 ft 7 kts 341°
2026-04-18 17:29 46.21820 7.32147 1575 ft 17 kts 77°
2026-04-18 17:30 46.21960 7.32796 1579 ft 113 kts 74°
2026-04-18 17:30 46.22228 7.34088 1765 ft 153 kts 72°
2026-04-18 17:30 46.22703 7.35627 2005 ft 178 kts 58°
2026-04-18 17:30 46.23371 7.37218 2244 ft 184 kts 53°
2026-04-18 17:31 46.23938 7.38824 2645 ft 180 kts 73°
2026-04-18 17:31 46.24250 7.40553 2961 ft 179 kts 70°
2026-04-18 17:31 46.24800 7.42152 3309 ft 173 kts 59°
2026-04-18 17:31 46.25387 7.43630 3645 ft 169 kts 59°
2026-04-18 17:32 46.25967 7.45089 3985 ft 166 kts 58°
2026-04-18 17:32 46.26531 7.46517 4297 ft 162 kts 58°
2026-04-18 17:32 46.27085 7.47924 4570 ft 160 kts 59°
2026-04-18 17:32 46.27638 7.49307 4824 ft 157 kts 58°
2026-04-18 17:33 46.28036 7.50742 5136 ft 152 kts 73°
2026-04-18 17:33 46.28631 7.53622 5648 ft 147 kts 73°
2026-04-18 17:33 46.28817 7.55024 5923 ft 139 kts 102°
2026-04-18 17:34 46.28233 7.55998 6209 ft 128 kts 156°
2026-04-18 17:34 46.27412 7.56529 6382 ft 135 kts 159°
2026-04-18 17:34 46.26452 7.57119 6519 ft 160 kts 159°
2026-04-18 17:34 46.25377 7.57763 6662 ft 173 kts 158°
2026-04-18 17:35 46.24235 7.58427 6795 ft 180 kts 160°
2026-04-18 17:35 46.23044 7.59139 6938 ft 188 kts 158°
2026-04-18 17:35 46.21835 7.59857 7155 ft 187 kts 159°
2026-04-18 17:35 46.20655 7.60549 7409 ft 184 kts 160°
2026-04-18 17:36 46.19471 7.61253 7657 ft 184 kts 160°
2026-04-18 17:36 46.18294 7.61975 7904 ft 184 kts 159°
2026-04-18 17:36 46.17126 7.62693 8160 ft 183 kts 158°
2026-04-18 17:36 46.15947 7.63409 8414 ft 184 kts 158°
2026-04-18 17:37 46.14772 7.64134 8755 ft 183 kts 159°
2026-04-18 17:37 46.13592 7.64820 9106 ft 182 kts 164°
2026-04-18 17:37 46.12387 7.65356 9500 ft 179 kts 166°
2026-04-18 17:37 46.11239 7.65865 9904 ft 150 kts 166°
2026-04-18 17:38 46.10456 7.66201 10025 ft 97 kts 165°
2026-04-18 17:38 46.09888 7.66370 8282 ft 81 kts 135°
2026-04-18 17:38 46.09740 7.67381 8593 ft 134 kts 96°
2026-04-18 17:38 46.09559 7.68619 9512 ft 158 kts 122°
2026-04-18 17:39 46.08866 7.68241 9525 ft 155 kts 286°
2026-04-18 17:39 46.09428 7.66638 8756 ft 202 kts 298°
2026-04-18 17:39 46.10118 7.64825 7859 ft 195 kts 301°
2026-04-18 17:39 46.10950 7.63602 6915 ft 158 kts 331°
2026-04-18 17:40 46.11956 7.63165 5882 ft 143 kts 352°
2026-04-18 17:40 46.12815 7.62982 5501 ft 104 kts 335°
2026-04-18 17:40 46.13197 7.62621 6160 ft 152 kts 312°